Weather History for Cincinnati, OH

Change the Weather History Date:

Thursday, August 15, 2013

  Actual Average Record
Temperature  
Mean Temperature 60 °F -  
Max Temperature 73 °F 85 °F 99 °F (1988)
Min Temperature 48 °F 65 °F 48 °F (1964)
Degree Days  
Heating Degree Days 4    
Growing Degree Days 10 (Base 50)    
Moisture  
Dew Point 52 °F    
Average Humidity 81    
Maximum Humidity 100    
Minimum Humidity 46    
Precipitation  
Precipitation 0.00 in - - ()
Sea Level Pressure  
Sea Level Pressure 30.16 in    
Wind  
Wind Speed 1 mph (NE)    
Max Wind Speed 9 mph    
Max Gust Speed -    
Visibility 8 miles    
Events Fog    
Averages and records for this station are not official NWS values.
T = Trace of Precipitation, MM = Missing Value Source: NWS Daily Summary

Daily Weather History Graph

Daily Weather History Graph

Search for Another Location

Airport:

Trip Planner

Search our weather history database for the weather conditions in past years. The results will help you decide how hot, cold, wet, or windy it might be!

Date:

Astronomy

Aug. 15, 2013 Rise Set
Actual Time 6:51 AM EDT 8:32 PM EDT
Civil Twilight 6:22 AM EDT 9:00 PM EDT
Nautical Twilight 5:47 AM EDT 9:35 PM EDT
Astronomical Twilight 5:11 AM EDT 10:11 PM EDT
Moon 3:47 PM EDT (8/15) 1:00 AM EDT (8/15)
Length of Visible Light 14h 38m
Length of Day
13h 41m
Waxing Gibbous, 64% of the Moon is Illuminated
Aug 15
Waxing Gibbous
Aug 20
Full
Aug 28
Last Quarter
Sep 5
New
Sep 12
First Quarter

Hourly Weather History & Observations

Time (EDT) Temp. Dew Point Humidity Pressure Visibility Wind Dir Wind Speed Gust Speed Precip Events Conditions
12:53 AM 54.0 °F 52.0 °F 93% 30.18 in 10.0 mi Calm Calm - N/A   Clear
1:53 AM 53.1 °F 52.0 °F 96% 30.18 in 10.0 mi Calm Calm - N/A   Clear
2:53 AM 52.0 °F 51.1 °F 97% 30.17 in 10.0 mi Calm Calm - N/A   Clear
3:19 AM 51.8 °F 51.8 °F 100% 30.17 in 1.8 mi Calm Calm - N/A   Clear
3:29 AM 51.8 °F 50.0 °F 94% 30.18 in 4.0 mi Calm Calm - N/A   Clear
3:44 AM 51.8 °F 51.8 °F 100% 30.18 in 2.0 mi Calm Calm - N/A   Clear
3:53 AM 52.0 °F 51.1 °F 97% 30.18 in 10.0 mi Calm Calm - N/A   Clear
4:53 AM 50.0 °F 48.9 °F 96% 30.17 in 9.0 mi Calm Calm - N/A   Clear
4:58 AM 50.0 °F 50.0 °F 100% 30.17 in 2.5 mi Calm Calm - N/A   Partly Cloudy
5:00 AM 50.0 °F 50.0 °F 100% 30.17 in 1.0 mi Calm Calm - N/A   Mist
5:10 AM 51.8 °F 50.0 °F 94% 30.18 in 3.0 mi Calm Calm - N/A   Partly Cloudy
5:23 AM 48.2 °F 48.2 °F 100% 30.18 in 1.5 mi Calm Calm - N/A   Partly Cloudy
5:39 AM 51.8 °F 50.0 °F 94% 30.18 in 7.0 mi Calm Calm - N/A   Clear
5:53 AM 50.0 °F 48.9 °F 96% 30.18 in 6.0 mi Calm Calm - N/A   Clear
6:53 AM 51.1 °F 50.0 °F 96% 30.18 in 7.0 mi NE 3.5 mph - N/A   Clear
7:53 AM 53.1 °F 52.0 °F 96% 30.19 in 10.0 mi Calm Calm - N/A Fog Patches of Fog
8:53 AM 57.9 °F 53.1 °F 84% 30.20 in 10.0 mi NE 3.5 mph - N/A   Clear
9:53 AM 62.1 °F 55.0 °F 78% 30.18 in 10.0 mi NE 4.6 mph - N/A   Clear
10:53 AM 68.0 °F 53.1 °F 59% 30.18 in 10.0 mi Variable 4.6 mph - N/A   Clear
11:53 AM 69.1 °F 52.0 °F 54% 30.18 in 10.0 mi ENE 4.6 mph - N/A   Scattered Clouds
12:53 PM 71.1 °F 53.1 °F 53% 30.17 in 10.0 mi NNE 9.2 mph - N/A   Mostly Cloudy
1:53 PM 71.1 °F 52.0 °F 51% 30.15 in 10.0 mi NE 8.1 mph - N/A   Scattered Clouds
2:53 PM 73.0 °F 52.0 °F 48% 30.14 in 10.0 mi NE 8.1 mph - N/A   Scattered Clouds
3:53 PM 72.0 °F 53.1 °F 51% 30.12 in 10.0 mi SSE 3.5 mph - N/A   Partly Cloudy
4:53 PM 73.0 °F 51.1 °F 46% 30.11 in 10.0 mi Variable 3.5 mph - N/A   Clear
5:53 PM 73.0 °F 53.1 °F 49% 30.10 in 10.0 mi NE 4.6 mph - N/A   Scattered Clouds
6:53 PM 72.0 °F 55.0 °F 55% 30.09 in 10.0 mi NE 4.6 mph - N/A   Clear
7:53 PM 69.1 °F 57.0 °F 65% 30.10 in 10.0 mi Calm Calm - N/A   Partly Cloudy
8:53 PM 64.9 °F 57.9 °F 78% 30.12 in 10.0 mi Calm Calm - N/A   Clear
9:53 PM 61.0 °F 57.0 °F 87% 30.12 in 10.0 mi Calm Calm - N/A   Clear
10:53 PM 60.1 °F 59.0 °F 96% 30.13 in 10.0 mi Calm Calm - N/A   Clear
11:53 PM 59.0 °F 57.0 °F 93% 30.13 in 10.0 mi Calm Calm - N/A   Clear